| time (UTC) | temp F | wind direction | speed MPH | gust MPH | rain 1hr in | rain 24hr in | rain mn in | humidity % | barometer mb |
| 20260906234916 | 91 | 68 | 5.0 | 8.0 | 0.00 | 0.00 | 0.00 | 65 | 1011.6 |
| 20260906233916 | 91 | 68 | 3.0 | 4.0 | 0.00 | 0.00 | 0.00 | 65 | 1011.4 |
| 20260906232916 | 92 | 90 | 4.0 | 6.0 | 0.00 | 0.00 | 0.00 | 64 | 1011.2 |
| 20260906231917 | 92 | 68 | 3.0 | 4.0 | 0.00 | 0.00 | 0.00 | 65 | 1011.2 |
| 20260906230916 | 93 | 90 | 3.0 | 5.0 | 0.00 | 0.00 | 0.00 | 62 | 1010.9 |
| 20260906225917 | 94 | 68 | 5.0 | 7.0 | 0.00 | 0.00 | 0.00 | 60 | 1011.1 |
| 20260906224916 | 94 | 90 | 6.0 | 8.0 | 0.00 | 0.00 | 0.00 | 59 | 1010.8 |
| 20260906223916 | 95 | 90 | 3.0 | 4.0 | 0.00 | 0.00 | 0.00 | 61 | 1010.9 |
| 20260906222917 | 95 | 113 | 2.0 | 4.0 | 0.00 | 0.00 | 0.00 | 62 | 1010.9 |
| 20260906221916 | 95 | 45 | 3.0 | 5.0 | 0.00 | 0.00 | 0.00 | 62 | 1010.8 |
| 20260906220936 | 94 | 90 | 4.0 | 6.0 | 0.00 | 0.00 | 0.00 | 63 | 1010.7 |
| 20260906215917 | 93 | 68 | 2.0 | 4.0 | 0.00 | 0.00 | 0.00 | 62 | 1010.7 |
| 20260906214917 | 93 | 113 | 1.0 | 2.0 | 0.00 | 0.00 | 0.00 | 62 | 1010.7 |
| 20260906213916 | 93 | 90 | 1.0 | 2.0 | 0.00 | 0.00 | 0.00 | 61 | 1010.7 |
| 20260906212917 | 94 | 68 | 2.0 | 2.0 | 0.00 | 0.00 | 0.00 | 60 | 1010.7 |
| 20260906211916 | 94 | 113 | 2.0 | 4.0 | 0.00 | 0.00 | 0.00 | 59 | 1010.8 |
| 20260906210917 | 95 | 68 | 1.0 | 2.0 | 0.00 | 0.00 | 0.00 | 57 | 1011.3 |
| 20260906205917 | 96 | 45 | 3.0 | 3.0 | 0.00 | 0.00 | 0.00 | 56 | 1011.5 |
| 20260906204917 | 96 | 68 | 2.0 | 4.0 | 0.00 | 0.00 | 0.00 | 57 | 1011.7 |
| 20260906203916 | 95 | 90 | 4.0 | 5.0 | 0.00 | 0.00 | 0.00 | 59 | 1011.8 |
| 20260906202917 | 96 | 90 | 6.0 | 8.0 | 0.00 | 0.00 | 0.00 | 57 | 1012.0 |
| 20260906201917 | 97 | 68 | 5.0 | 7.0 | 0.00 | 0.00 | 0.00 | 55 | 1012.1 |
| 20260906200916 | 97 | 68 | 6.0 | 10.0 | 0.00 | 0.00 | 0.00 | 54 | 1012.2 |
| 20260906195917 | 97 | 68 | 3.0 | 4.0 | 0.00 | 0.00 | 0.00 | 56 | 1012.3 |
| 20260906194917 | 97 | 68 | 4.0 | 5.0 | 0.00 | 0.00 | 0.00 | 52 | 1012.6 |
| 20260906193936 | 97 | 68 | 6.0 | 9.0 | 0.00 | 0.00 | 0.00 | 52 | 1012.6 |
| 20260906192916 | 96 | 68 | 7.0 | 11.0 | 0.00 | 0.00 | 0.00 | 52 | 1012.7 |
| 20260906191916 | 97 | 68 | 4.0 | 5.0 | 0.00 | 0.00 | 0.00 | 55 | 1012.8 |
| 20260906190916 | 97 | 90 | 4.0 | 5.0 | 0.00 | 0.00 | 0.00 | 51 | 1012.8 |
| 20260906185916 | 97 | 90 | 4.0 | 5.0 | 0.00 | 0.00 | 0.00 | 53 | 1013.1 |
| 20260906184936 | 96 | 90 | 4.0 | 5.0 | 0.00 | 0.00 | 0.00 | 52 | 1013.2 |
| 20260906183917 | 96 | 113 | 2.0 | 3.0 | 0.00 | 0.00 | 0.00 | 55 | 1013.4 |
| 20260906182937 | 97 | 135 | 2.0 | 3.0 | 0.00 | 0.00 | 0.00 | 53 | 1013.6 |
| 20260906181957 | 96 | 90 | 2.0 | 5.0 | 0.00 | 0.00 | 0.00 | 56 | 1013.7 |
| 20260906180917 | 95 | 135 | 1.0 | 3.0 | 0.00 | 0.00 | 0.00 | 56 | 1013.7 |
| 20260906175916 | 95 | 113 | 2.0 | 5.0 | 0.00 | 0.00 | 0.00 | 59 | 1013.9 |
| 20260906174936 | 95 | 90 | 5.0 | 6.0 | 0.00 | 0.00 | 0.00 | 53 | 1014.1 |
| 20260906173916 | 95 | 45 | 3.0 | 7.0 | 0.00 | 0.00 | 0.00 | 58 | 1014.2 |
| 20260906172916 | 95 | 90 | 4.0 | 6.0 | 0.00 | 0.00 | 0.00 | 59 | 1014.4 |
| 20260906171917 | 95 | 113 | 3.0 | 5.0 | 0.00 | 0.00 | 0.00 | 61 | 1014.5 |
| 20260906170917 | 95 | 135 | 1.0 | 2.0 | 0.00 | 0.00 | 0.00 | 64 | 1014.8 |
| 20260906165937 | 94 | 113 | 3.0 | 4.0 | 0.00 | 0.00 | 0.00 | 62 | 1014.8 |
| 20260906164917 | 94 | 90 | 3.0 | 4.0 | 0.00 | 0.00 | 0.00 | 63 | 1015.0 |
| 20260906163917 | 94 | 158 | 3.0 | 4.0 | 0.00 | 0.00 | 0.00 | 62 | 1015.0 |
| 20260906162937 | 93 | 158 | 4.0 | 6.0 | 0.00 | 0.00 | 0.00 | 64 | 1015.0 |
| 20260906161917 | 92 | 135 | 3.0 | 4.0 | 0.00 | 0.00 | 0.00 | 66 | 1014.9 |
| 20260906160917 | 91 | 113 | 1.0 | 3.0 | 0.00 | 0.00 | 0.00 | 70 | 1014.9 |
| 20260906155917 | 90 | 90 | 4.0 | 5.0 | 0.00 | 0.00 | 0.00 | 68 | 1014.7 |
| 20260906154917 | 90 | 90 | 2.0 | 3.0 | 0.00 | 0.00 | 0.00 | 70 | 1014.7 |
| 20260906153957 | 89 | 68 | 3.0 | 5.0 | 0.00 | 0.00 | 0.00 | 71 | 1014.7 |
| 20260906152917 | 89 | 68 | 4.0 | 5.0 | 0.00 | 0.00 | 0.00 | 71 | 1014.7 |
| 20260906151956 | 88 | 135 | 2.0 | 3.0 | 0.00 | 0.00 | 0.00 | 72 | 1014.7 |
| 20260906150917 | 88 | 90 | 4.0 | 6.0 | 0.00 | 0.00 | 0.00 | 71 | 1014.6 |
| 20260906145917 | 88 | 90 | 2.0 | 3.0 | 0.00 | 0.00 | 0.00 | 71 | 1014.7 |
| 20260906144917 | 88 | 158 | 1.0 | 2.0 | 0.00 | 0.00 | 0.00 | 73 | 1014.6 |
| 20260906143917 | 86 | 90 | 4.0 | 6.0 | 0.00 | 0.00 | 0.00 | 74 | 1014.7 |
| 20260906142917 | 86 | 68 | 1.0 | 2.0 | 0.00 | 0.00 | 0.00 | 75 | 1014.6 |
| 20260906141937 | 86 | 113 | 2.0 | 3.0 | 0.00 | 0.00 | 0.00 | 76 | 1014.6 |
| 20260906140917 | 85 | 90 | 2.0 | 4.0 | 0.00 | 0.00 | 0.00 | 76 | 1014.6 |
| 20260906135917 | 84 | 68 | 3.0 | 5.0 | 0.00 | 0.00 | 0.00 | 77 | 1014.6 |
| 20260906134937 | 84 | 68 | 4.0 | 6.0 | 0.00 | 0.00 | 0.00 | 78 | 1014.6 |
| 20260906133917 | 83 | 90 | 4.0 | 6.0 | 0.00 | 0.00 | 0.00 | 78 | 1014.6 |
| 20260906132917 | 82 | 68 | 1.0 | 2.0 | 0.00 | 0.00 | 0.00 | 79 | 1014.4 |
| 20260906131958 | 82 | 90 | 1.0 | 3.0 | 0.00 | 0.00 | 0.00 | 80 | 1014.4 |
| 20260906130957 | 81 | 90 | 2.0 | 4.0 | 0.00 | 0.00 | 0.00 | 80 | 1014.3 |
| 20260906125917 | 80 | 68 | 3.0 | 4.0 | 0.00 | 0.00 | 0.00 | 80 | 1014.1 |
| 20260906124917 | 80 | 0.0 | 1.0 | 0.00 | 0.00 | 0.00 | 81 | 1014.1 | |
| 20260906123938 | 78 | 0.0 | 0.0 | 0.00 | 0.00 | 0.00 | 83 | 1013.9 | |
| 20260906122917 | 78 | 113 | 2.0 | 3.0 | 0.00 | 0.00 | 0.00 | 83 | 1013.8 |
| 20260906121937 | 77 | 0.0 | 1.0 | 0.00 | 0.00 | 0.00 | 84 | 1013.9 | |
| 20260906120917 | 77 | 113 | 1.0 | 1.0 | 0.00 | 0.00 | 0.00 | 84 | 1013.8 |
| 20260906115958 | 77 | 113 | 1.0 | 2.0 | 0.00 | 0.00 | 0.00 | 84 | 1013.6 |
| 20260906114918 | 77 | 90 | 1.0 | 2.0 | 0.00 | 0.00 | 0.00 | 84 | 1013.7 |
| 20260906113917 | 76 | 0.0 | 1.0 | 0.00 | 0.00 | 0.00 | 84 | 1013.6 | |
| 20260906112917 | 76 | 0.0 | 0.0 | 0.00 | 0.00 | 0.00 | 85 | 1013.5 | |
| 20260906111917 | 75 | 0.0 | 1.0 | 0.00 | 0.00 | 0.00 | 85 | 1013.5 | |
| 20260906110937 | 75 | 0.0 | 0.0 | 0.00 | 0.00 | 0.00 | 85 | 1013.4 | |
| 20260906105917 | 76 | 0.0 | 1.0 | 0.00 | 0.00 | 0.00 | 84 | 1013.5 | |
| 20260906104917 | 76 | 0.0 | 0.0 | 0.00 | 0.00 | 0.00 | 83 | 1013.6 | |
| 20260906103917 | 76 | 0.0 | 0.0 | 0.00 | 0.00 | 0.00 | 83 | 1013.5 | |
| 20260906102937 | 75 | 0.0 | 0.0 | 0.00 | 0.00 | 0.00 | 85 | 1013.3 | |
| 20260906101917 | 75 | 0.0 | 0.0 | 0.00 | 0.00 | 0.00 | 85 | 1013.4 | |
| 20260906100937 | 75 | 0.0 | 0.0 | 0.00 | 0.00 | 0.00 | 85 | 1013.4 | |
| 20260906095917 | 75 | 0.0 | 0.0 | 0.00 | 0.00 | 0.00 | 84 | 1013.2 | |
| 20260906094937 | 75 | 0.0 | 0.0 | 0.00 | 0.00 | 0.00 | 85 | 1013.3 | |
| 20260906093917 | 75 | 0.0 | 0.0 | 0.00 | 0.00 | 0.00 | 85 | 1013.2 | |
| 20260906092918 | 75 | 0.0 | 0.0 | 0.00 | 0.00 | 0.00 | 86 | 1013.1 | |
| 20260906091938 | 75 | 0.0 | 0.0 | 0.00 | 0.00 | 0.00 | 86 | 1013.0 | |
| 20260906090917 | 75 | 0.0 | 0.0 | 0.00 | 0.00 | 0.00 | 83 | 1012.9 | |
| 20260906085918 | 76 | 0.0 | 0.0 | 0.00 | 0.00 | 0.00 | 84 | 1013.0 | |
| 20260906084918 | 75 | 0.0 | 1.0 | 0.00 | 0.00 | 0.00 | 85 | 1012.8 | |
| 20260906083917 | 75 | 0.0 | 0.0 | 0.00 | 0.00 | 0.00 | 86 | 1012.9 | |
| 20260906082917 | 75 | 0.0 | 0.0 | 0.00 | 0.00 | 0.00 | 86 | 1012.8 | |
| 20260906081917 | 76 | 0.0 | 0.0 | 0.00 | 0.00 | 0.00 | 85 | 1012.9 | |
| 20260906080917 | 76 | 0.0 | 0.0 | 0.00 | 0.00 | 0.00 | 84 | 1012.8 | |
| 20260906075917 | 76 | 0.0 | 0.0 | 0.00 | 0.00 | 0.00 | 84 | 1012.7 | |
| 20260906074917 | 76 | 0.0 | 0.0 | 0.00 | 0.00 | 0.00 | 84 | 1012.8 | |
| 20260906073917 | 77 | 0.0 | 0.0 | 0.00 | 0.00 | 0.00 | 83 | 1012.8 | |
| 20260906072918 | 77 | 0.0 | 0.0 | 0.00 | 0.00 | 0.00 | 82 | 1012.7 | |
| 20260906071917 | 78 | 0.0 | 0.0 | 0.00 | 0.00 | 0.00 | 82 | 1012.7 | |
| 20260906070917 | 76 | 0.0 | 0.0 | 0.00 | 0.00 | 0.00 | 84 | 1012.7 | |
| 20260906065918 | 76 | 0.0 | 0.0 | 0.00 | 0.00 | 0.00 | 85 | 1012.7 | |
| 20260906064918 | 76 | 0.0 | 0.0 | 0.00 | 0.00 | 0.00 | 85 | 1012.8 | |
| 20260906063918 | 76 | 0.0 | 0.0 | 0.00 | 0.00 | 0.00 | 84 | 1012.8 | |
| 20260906062917 | 76 | 0.0 | 0.0 | 0.00 | 0.00 | 0.00 | 84 | 1012.8 | |
| 20260906061918 | 76 | 0.0 | 0.0 | 0.00 | 0.00 | 0.00 | 84 | 1012.9 | |
| 20260906060918 | 76 | 0.0 | 0.0 | 0.00 | 0.00 | 0.00 | 84 | 1013.0 | |
| 20260906055917 | 76 | 0.0 | 0.0 | 0.00 | 0.00 | 0.00 | 85 | 1013.0 | |
| 20260906054918 | 76 | 0.0 | 0.0 | 0.00 | 0.00 | 0.00 | 85 | 1013.2 | |
| 20260906053918 | 77 | 0.0 | 0.0 | 0.00 | 0.00 | 0.00 | 85 | 1013.3 | |
| 20260906052938 | 77 | 0.0 | 0.0 | 0.00 | 0.00 | 0.00 | 84 | 1013.3 | |
| 20260906051917 | 77 | 0.0 | 0.0 | 0.00 | 0.00 | 0.00 | 84 | 1013.3 | |
| 20260906050917 | 77 | 0.0 | 0.0 | 0.00 | 0.00 | 0.00 | 83 | 1013.1 | |
| 20260906045916 | 77 | 0.0 | 0.0 | 0.00 | 0.00 | 0.00 | 83 | 1013.1 | |
| 20260906045007 | 78 | 0.0 | 0.0 | 0.00 | 0.00 | 0.00 | 83 | 1013.2 | |
| 20260906044700 | 78 | 0.0 | 0.0 | 0.00 | 0.00 | 0.00 | 83 | 1013.3 | |
| 20260906043817 | 78 | 0.0 | 0.0 | 0.00 | 0.00 | 0.00 | 83 | 1013.2 | |
| 20260906042816 | 78 | 0.0 | 0.0 | 0.00 | 0.00 | 0.00 | 80 | 1013.1 | |
| 20260906041816 | 79 | 0.0 | 0.0 | 0.00 | 0.00 | 0.00 | 78 | 1013.1 | |
| 20260906040816 | 79 | 0.0 | 0.0 | 0.00 | 0.00 | 0.00 | 78 | 1013.0 | |
| 20260906035816 | 79 | 0.0 | 0.0 | 0.00 | 0.00 | 0.00 | 79 | 1013.0 | |
| 20260906034816 | 79 | 0.0 | 0.0 | 0.00 | 0.00 | 0.00 | 79 | 1012.8 | |
| 20260906033816 | 80 | 0.0 | 0.0 | 0.00 | 0.00 | 0.00 | 78 | 1012.8 | |
| 20260906032816 | 81 | 0.0 | 0.0 | 0.00 | 0.00 | 0.00 | 78 | 1012.7 | |
| 20260906031817 | 81 | 0.0 | 0.0 | 0.00 | 0.00 | 0.00 | 76 | 1012.8 | |
| 20260906030817 | 81 | 0.0 | 0.0 | 0.00 | 0.00 | 0.00 | 76 | 1012.4 | |
| 20260906025816 | 81 | 0.0 | 0.0 | 0.00 | 0.00 | 0.00 | 77 | 1012.3 | |
| 20260906024816 | 81 | 0.0 | 0.0 | 0.00 | 0.00 | 0.00 | 77 | 1012.2 | |
| 20260906023856 | 81 | 0.0 | 0.0 | 0.00 | 0.00 | 0.00 | 79 | 1012.1 | |
| 20260906022816 | 82 | 0.0 | 0.0 | 0.00 | 0.00 | 0.00 | 78 | 1012.0 | |
| 20260906021816 | 83 | 0.0 | 0.0 | 0.00 | 0.00 | 0.00 | 77 | 1011.9 | |
| 20260906020837 | 83 | 0.0 | 0.0 | 0.00 | 0.00 | 0.00 | 76 | 1011.7 | |
| 20260906015817 | 83 | 0.0 | 0.0 | 0.00 | 0.00 | 0.00 | 76 | 1011.6 | |
| 20260906014836 | 84 | 0.0 | 0.0 | 0.00 | 0.00 | 0.00 | 74 | 1011.4 | |
| 20260906013816 | 85 | 0.0 | 0.0 | 0.00 | 0.00 | 0.00 | 72 | 1011.2 | |
| 20260906012817 | 86 | 0.0 | 0.0 | 0.00 | 0.00 | 0.00 | 71 | 1011.2 | |
| 20260906011817 | 87 | 0.0 | 0.0 | 0.00 | 0.00 | 0.00 | 69 | 1011.2 | |
| 20260906010817 | 87 | 0.0 | 0.0 | 0.00 | 0.00 | 0.00 | 68 | 1011.1 | |
| 20260906005836 | 88 | 0.0 | 0.0 | 0.00 | 0.00 | 0.00 | 67 | 1011.0 | |
| 20260906004817 | 88 | 68 | 1.0 | 2.0 | 0.00 | 0.00 | 0.00 | 68 | 1011.0 |
| 20260906003817 | 88 | 0.0 | 1.0 | 0.00 | 0.00 | 0.00 | 67 | 1010.8 | |
| 20260906002816 | 90 | 0.0 | 1.0 | 0.00 | 0.00 | 0.00 | 65 | 1011.0 | |
| 20260906001934 | 92 | 0.0 | 0.0 | 0.00 | 0.00 | 0.00 | 61 | 1011.1 | |
| 20260906001805 | 92 | 0.0 | 0.0 | 0.00 | 0.00 | 0.00 | 61 | 1011.1 | |
| 20260906001512 | 92 | 0.0 | 0.0 | 0.00 | 0.00 | 0.00 | 61 | 1011.1 | |
| 20260906000418 | 93 | 68 | 1.0 | 2.0 | 0.00 | 0.00 | 0.00 | 59 | 1011.1 |
| 20260905235417 | 94 | 68 | 2.0 | 2.0 | 0.00 | 0.00 | 0.00 | 59 | 1011.1 |